[[{"header":{"parameterUnit":"m.s-1","parameterCategory":1,"la1":30.2991,"la2":30.254,"lo1":-89.0895,"lo2":-89.0444,"dy":0.0017,"dx":0.0017,"nx":28,"ny":28,"refTime":"2024-10-16T03:00:00:Z","depth":0,"parameterNumber":2,"parameterNumberName":"U-component_of_WINDS"},"data":[0,0,0,0,0,0,0,0,0,0,0,0,0,0,0,0,0,0,0,0,0,0,0,0,0,0,0,0,0,0,0,0,0,0,0,0,0,0,0,0,0,0,0,0,0,0,0,0,0,0,0,0,0,0,0,0,0,0,-5.4606,-5.4606,0,-5.4642,-5.4643,-5.4643,-5.4411,-5.4404,-5.4398,-5.4392,-5.443,-5.4436,-5.4443,0,0,0,0,0,0,0,0,0,0,0,0,0,-5.4336,-5.4342,-5.4606,-5.4606,-5.4607,-5.4642,-5.4643,-5.4643,-5.4412,-5.4404,-5.4396,-5.4389,-5.4427,-5.4436,-5.4444,0,0,0,0,0,0,0,0,0,0,0,0,0,-5.4421,-5.4344,-5.4606,-5.4496,-5.4486,-5.4642,-5.4643,-5.4643,-5.4414,-5.4404,-5.4394,-5.4385,-5.4424,-5.4435,-5.4445,-5.4708,0,0,-5.4478,-5.4483,0,0,0,0,0,0,0,0,-5.4417,-5.4431,-5.4512,-5.4504,-5.4493,-5.4512,-5.4561,-5.4665,-5.4416,-5.4442,-5.4391,-5.438,-5.4465,-5.4472,-5.45,-5.471,-5.4712,-5.4479,-5.4485,-5.449,-5.4493,0,0,0,0,0,0,0,-5.4411,-5.4428,-5.462,-5.4513,-5.4502,-5.4444,-5.4446,-5.458,-5.4508,-5.4439,-5.4422,-5.4429,-5.4458,-5.449,-5.4499,-5.4712,-5.4479,-5.4488,-5.4495,-5.4499,-5.5139,-5.5149,0,0,0,0,0,0,-5.442,-5.4425,-5.4619,-5.4621,-5.443,-5.4457,-5.4459,-5.4516,-5.4506,-5.4495,-5.4438,-5.4418,-5.4477,-5.4487,-5.45,-5.4807,-5.449,-5.45,-5.4506,-5.5128,-5.5141,-5.5153,0,0,0,0,0,0,-5.4415,-5.4439,-5.4617,-5.4519,-5.4537,-5.4472,-5.4539,-5.4522,-5.4554,-5.4505,-5.4491,-5.4484,-5.447,-5.4485,-5.4658,-5.4805,-5.4505,-5.4514,-5.5116,-5.5132,-5.5147,-5.5424,0,0,0,0,0,0,-5.4408,-5.4439,-5.4539,-5.4523,-5.4543,-5.4777,-5.4548,-5.453,-5.4573,-5.4548,-5.4545,-5.4535,-5.4463,-5.4643,-5.4669,-5.4814,-5.4523,-5.5102,-5.5123,-5.5142,-5.5402,-5.5448,-5.5487,0,0,0,0,0,-5.4399,-5.4616,-5.4545,-5.457,-5.4667,-5.4785,-5.4797,-5.471,-5.4586,-5.4685,-5.4653,-5.4535,-5.4785,-5.4663,-5.469,-5.4841,-5.5093,-5.5117,-5.514,-5.5383,-5.5439,-5.5486,0,0,0,0,0,0,-5.4651,-5.4612,-5.4533,-5.475,-5.4773,-5.4746,-5.4869,-5.4772,-5.483,-5.4805,-5.4694,-5.4695,-5.4887,-5.488,-5.4746,-5.5094,-5.4917,-5.4947,-5.5092,-5.5145,-5.5187,-5.5185,-5.4532,0,0,0,0,0,-5.4732,-5.4832,-5.4792,-5.4988,-5.5003,-5.4935,-5.4983,-5.4914,-5.4933,-5.4941,-5.4922,-5.4946,-5.5028,-5.5086,-5.516,-5.5399,-5.5395,-5.5516,-5.5558,-5.5593,-5.5621,-5.5747,-5.58,-5.5231,-5.5231,-5.523,0,0,-5.49,-5.4891,-5.4961,-5.5038,-5.5047,-5.5153,-5.4944,-5.5065,-5.5143,-5.4959,-5.5122,-5.5109,-5.5127,-5.5335,-5.5425,-5.5335,-5.5777,-5.5624,-5.5652,-5.5661,-5.5777,-5.5831,-5.5879,-5.5247,-5.5244,-5.5242,0,0,-5.5261,-5.5264,-5.5427,-5.5441,-5.5457,-5.541,-5.545,-5.5437,-5.5422,-5.5583,-5.5447,-5.5537,-5.5683,-5.5702,-5.573,-5.6097,-5.599,-5.6124,-5.6347,-5.6471,-5.6516,-5.6555,-5.6686,-5.6734,-5.6151,-5.6152,-5.6153,0,-5.5468,-5.5623,-5.5524,-5.5654,-5.5692,-5.553,-5.5694,-5.5712,-5.5752,-5.5782,-5.568,-5.5859,-5.586,-5.607,-5.6159,-5.6187,-5.6229,-5.6124,-5.6517,-5.6556,-5.6591,-5.6714,-5.6764,-5.6168,-5.6167,-5.6165,-5.6163,0,-5.5876,-5.5986,-5.6115,-5.6158,-5.621,-5.6357,-5.628,-5.6345,-5.627,-5.6234,-5.64,-5.6395,-5.6465,-5.6509,-5.6438,-5.6709,-5.6652,-5.6536,-5.6356,-5.6663,-5.6777,-5.6824,-5.6192,-5.6186,-5.6181,-5.6177,0,0,-5.6399,-5.6384,-5.6433,-5.645,-5.6456,-5.6538,-5.6677,-5.6745,-5.6803,-5.6836,-5.695,-5.7076,-5.6968,-5.7001,-5.693,-5.7039,-5.7329,-5.6908,-5.6907,-5.6987,-5.7627,-5.7716,-5.7772,-5.7258,-5.7266,-5.7273,-5.7626,0,-5.6751,-5.6988,-5.6903,-5.7145,-5.7245,-5.7092,-5.7212,-5.7229,-5.7199,-5.7278,-5.7243,-5.7335,-5.7186,-5.7204,-5.7305,-5.7273,-5.7457,-5.7246,-5.7363,-5.7369,-5.7365,-5.7832,-5.7926,-5.8259,-5.767,-5.7678,-5.7683,0,-5.7195,-5.7246,-5.7499,-5.7486,-5.7525,-5.7635,-5.769,-5.7768,-5.7783,-5.7753,-5.779,-5.7695,-5.783,-5.7649,-5.7833,-5.7692,-5.7734,-5.7726,-5.7737,-5.7745,-5.7546,-5.7854,-5.8363,-5.8414,-5.7752,-5.7747,-5.7742,0,-5.7552,-5.7683,-5.785,-5.787,-5.786,-5.7941,-5.794,-5.7946,-5.7992,-5.8039,-5.8068,-5.8132,-5.8167,-5.8218,-5.8142,-5.8018,-5.8338,-5.8151,-5.8317,-5.8319,-5.8392,-5.8389,-5.8917,-5.8419,-5.8418,-5.8417,-5.8416,0,-5.7955,-5.8116,-5.801,-5.8114,-5.8289,-5.8189,-5.8365,-5.8347,-5.8353,-5.845,-5.8321,-5.8415,-5.8309,-5.8393,-5.8335,-5.8496,-5.8513,-5.8492,-5.8475,-5.8505,-5.8508,-5.8532,-5.8507,-5.8431,-5.8428,-5.8425,-5.8423,0,-5.8384,-5.8319,-5.8492,-5.8468,-5.8466,-5.8596,-5.8575,-5.867,-5.8629,-5.8754,-5.8777,-5.8714,-5.8806,-5.8735,-5.8826,-5.8786,-5.9,-5.895,-5.8996,-5.8982,-5.9152,-5.9138,-5.9715,-5.9785,-5.9242,-5.9247,-5.9252,0,-5.8646,-5.8766,-5.8755,-5.881,-5.8818,-5.891,-5.8956,-5.8861,-5.8914,-5.894,-5.9032,-5.9112,-5.9172,-5.9326,-5.9288,-5.9356,-5.9307,-5.9504,-5.9316,-5.9342,-5.931,-5.9305,-5.9316,-5.9543,-5.9549,-5.9555,-5.9559,0,-5.9119,-5.9081,-5.9152,-5.9213,-5.9272,-5.9315,-5.9348,-5.9401,-5.9304,-5.9371,-5.9463,-5.9509,-5.9601,-5.9683,-5.9738,-5.9736,-5.9633,-5.9618,-5.966,-5.9692,-5.9714,-5.9705,-5.91,-5.9606,-5.9601,-5.9598,-5.9595,-5.9593,-5.9472,-5.9571,-5.9579,-5.9663,-5.9677,-5.9711,-5.9799,-5.9769,-5.9844,-5.9911,-5.985,-5.9962,-5.9972,-6.0035,-6.0046,-6.0131,-6.005,-6.0111,-6.0126,-6.0143,-6.0168,-5.97,-6.0141,-6.0139,-6.0138,-6.0137,-6.0136,0,-5.9938,-5.9935,-6.0013,-6.0063,-6.0129,-6.0025,-6.0056,-6.0118,-6.0217,-6.0236,-6.0297,-6.0403,-6.0481,-6.0449,-6.0518,-6.0592,-6.0546,-6.0613,-6.0607,-6.0609,-6.0236,-6.0193,-6.0649,-6.0649,-6.0649,-6.0649,-6.0649,-6.0649,-6.0189,-6.0351,-6.0314,-6.0482,-6.0477,-6.0585,-6.0612,-6.0642,-6.0656,-6.078,-6.0845,-6.0823,-6.0821,-6.0888,-6.0956,-6.0944,-6.0975,-6.1061,-6.1032,-6.0685,-6.0635,-6.0587,-6.0546,-6.1068,-6.1069,-6.1397,-6.14,-6.1402]},{"header":{"parameterUnit":"m.s-1","parameterCategory":1,"la1":30.2991,"la2":30.254,"lo1":-89.0895,"lo2":-89.0444,"dy":0.0017,"dx":0.0017,"nx":28,"ny":28,"refTime":"2024-10-16T03:00:00:Z","depth":0,"parameterNumber":3,"parameterNumberName":"V-component_of_WINDS"},"data":[0,0,0,0,0,0,0,0,0,0,0,0,0,0,0,0,0,0,0,0,0,0,0,0,0,0,0,0,0,0,0,0,0,0,0,0,0,0,0,0,0,0,0,0,0,0,0,0,0,0,0,0,0,0,0,0,0,0,-5.4491,-5.4492,0,-5.4547,-5.4547,-5.4548,-5.4462,-5.4459,-5.4456,-5.4453,-5.4506,-5.451,-5.4514,0,0,0,0,0,0,0,0,0,0,0,0,0,-5.4306,-5.431,-5.4491,-5.4492,-5.4493,-5.4547,-5.4547,-5.4548,-5.4462,-5.4459,-5.4455,-5.4452,-5.4505,-5.451,-5.4515,0,0,0,0,0,0,0,0,0,0,0,0,0,-5.4377,-5.4311,-5.4491,-5.4457,-5.4454,-5.4547,-5.4547,-5.4548,-5.4463,-5.4459,-5.4454,-5.445,-5.4503,-5.4509,-5.4516,-5.4643,0,0,-5.4535,-5.4537,0,0,0,0,0,0,0,0,-5.4373,-5.4383,-5.4461,-5.4459,-5.4457,-5.4493,-5.4501,-5.458,-5.4464,-5.446,-5.4453,-5.4448,-5.4505,-5.4511,-5.4531,-5.4646,-5.4648,-5.4535,-5.4539,-5.4542,-5.4544,0,0,0,0,0,0,0,-5.4368,-5.438,-5.4513,-5.4462,-5.446,-5.4436,-5.4442,-5.4516,-5.4507,-5.446,-5.4454,-5.4462,-5.4503,-5.4525,-5.4532,-5.4649,-5.4535,-5.4541,-5.4545,-5.4547,-5.4868,-5.4873,0,0,0,0,0,0,-5.4368,-5.4377,-5.4511,-5.4515,-5.4403,-5.4444,-5.4449,-5.4486,-5.4506,-5.4504,-5.4465,-5.4457,-5.4517,-5.4524,-5.4533,-5.4682,-5.4542,-5.4548,-5.4551,-5.4863,-5.4869,-5.4874,0,0,0,0,0,0,-5.4364,-5.4381,-5.4509,-5.4444,-5.4459,-5.4451,-5.4493,-5.4489,-5.4511,-5.451,-5.4507,-5.449,-5.4514,-5.4524,-5.4616,-5.4683,-5.455,-5.4556,-5.4858,-5.4865,-5.4872,-5.4982,0,0,0,0,0,0,-5.4359,-5.438,-5.443,-5.4446,-5.4463,-5.4593,-5.4497,-5.4493,-5.4523,-5.4513,-5.4532,-5.4531,-5.4511,-5.4607,-5.4622,-5.4689,-5.4561,-5.4852,-5.4861,-5.4869,-5.4972,-5.4992,-5.5009,0,0,0,0,0,-5.4353,-5.4459,-5.4433,-5.445,-5.4525,-5.4597,-5.4606,-5.4582,-5.4529,-5.4577,-5.4576,-5.4531,-5.4673,-5.4617,-5.4634,-5.4703,-5.4847,-5.4858,-5.4869,-5.4964,-5.4988,-5.5009,0,0,0,0,0,0,-5.4449,-5.446,-5.4432,-5.4546,-5.4572,-5.4583,-5.4644,-5.4609,-5.4649,-5.4638,-5.4604,-5.4609,-5.4707,-5.4714,-5.4652,-5.4826,-5.4751,-5.4766,-5.4818,-5.4841,-5.4859,-5.4854,-5.4566,0,0,0,0,0,-5.4484,-5.4543,-5.4549,-5.4649,-5.4663,-5.4652,-5.4682,-5.4661,-5.4685,-5.4695,-5.4701,-5.4725,-5.4775,-5.4808,-5.4855,-5.4973,-5.4975,-5.5029,-5.5047,-5.5062,-5.5075,-5.5135,-5.5158,-5.4909,-5.4909,-5.4909,0,0,-5.4556,-5.4569,-5.4609,-5.4669,-5.4686,-5.4746,-5.4661,-5.4729,-5.4772,-5.4705,-5.4792,-5.4797,-5.4821,-5.4927,-5.4973,-5.4935,-5.5144,-5.5076,-5.5088,-5.5092,-5.5149,-5.5172,-5.5193,-5.4917,-5.4915,-5.4914,0,0,-5.4718,-5.4735,-5.4819,-5.4838,-5.4865,-5.4856,-5.4877,-5.4893,-5.4894,-5.4981,-5.4931,-5.4981,-5.5069,-5.5087,-5.5108,-5.5275,-5.5234,-5.5291,-5.5386,-5.5446,-5.5465,-5.5482,-5.554,-5.5561,-5.5304,-5.5304,-5.5305,0,-5.4804,-5.4893,-5.4867,-5.4937,-5.4964,-5.4907,-5.499,-5.5009,-5.505,-5.5069,-5.5026,-5.5133,-5.5146,-5.5254,-5.5294,-5.5314,-5.5334,-5.5288,-5.5465,-5.5482,-5.5497,-5.5551,-5.5573,-5.5311,-5.531,-5.5309,-5.5309,0,-5.4996,-5.5059,-5.5123,-5.5164,-5.5198,-5.5275,-5.5258,-5.5295,-5.5271,-5.5266,-5.5354,-5.5367,-5.5413,-5.5438,-5.5415,-5.5542,-5.5517,-5.5471,-5.5394,-5.5528,-5.5578,-5.5599,-5.532,-5.5318,-5.5316,-5.5314,0,0,-5.522,-5.5244,-5.5268,-5.5285,-5.531,-5.5357,-5.543,-5.5477,-5.5508,-5.5538,-5.5597,-5.5671,-5.5628,-5.5652,-5.563,-5.5683,-5.5811,-5.5629,-5.5629,-5.5661,-5.5949,-5.5982,-5.6007,-5.5784,-5.5788,-5.5791,-5.5946,0,-5.5379,-5.5507,-5.5484,-5.5607,-5.5663,-5.5608,-5.5672,-5.5693,-5.569,-5.5736,-5.5732,-5.5784,-5.5724,-5.5738,-5.5788,-5.5785,-5.5868,-5.5774,-5.5836,-5.5839,-5.583,-5.6033,-5.6069,-5.6215,-5.5966,-5.5969,-5.5971,0,-5.5582,-5.5619,-5.5748,-5.5762,-5.5785,-5.5842,-5.5882,-5.5927,-5.5949,-5.5943,-5.5969,-5.5937,-5.6007,-5.5931,-5.6026,-5.5962,-5.5987,-5.5989,-5.5994,-5.5997,-5.5912,-5.604,-5.6261,-5.6282,-5.6002,-5.6,-5.5998,0,-5.5729,-5.5812,-5.5899,-5.5915,-5.5935,-5.5976,-5.5986,-5.6003,-5.6032,-5.6066,-5.6083,-5.6125,-5.6148,-5.618,-5.6159,-5.6106,-5.6257,-5.6179,-5.6252,-5.6252,-5.6285,-5.6282,-5.651,-5.6304,-5.6304,-5.6303,-5.6303,0,-5.5908,-5.5989,-5.5965,-5.6019,-5.6106,-5.6078,-5.6165,-5.6168,-5.6184,-5.6235,-5.6191,-5.624,-5.621,-5.6256,-5.624,-5.632,-5.6331,-5.6326,-5.6321,-5.6329,-5.633,-5.6344,-5.6332,-5.6309,-5.6308,-5.6307,-5.6306,0,-5.6088,-5.6075,-5.6166,-5.6177,-5.6181,-5.6245,-5.6253,-5.6302,-5.6295,-5.6361,-5.6374,-5.6364,-5.6415,-5.6398,-5.6454,-5.6443,-5.6543,-5.6526,-5.6536,-5.6531,-5.6604,-5.6596,-5.6846,-5.6877,-5.6653,-5.6655,-5.6657,0,-5.6202,-5.6262,-5.6279,-5.6311,-5.6324,-5.6376,-5.6404,-5.6379,-5.641,-5.6439,-5.6483,-5.6531,-5.6568,-5.6653,-5.6649,-5.669,-5.6672,-5.6757,-5.6678,-5.6684,-5.6671,-5.6667,-5.6671,-5.6772,-5.6775,-5.6777,-5.6779,0,-5.6405,-5.6395,-5.6439,-5.6481,-5.6516,-5.6548,-5.6575,-5.6603,-5.6578,-5.6616,-5.6668,-5.6697,-5.6753,-5.68,-5.6837,-5.6845,-5.6807,-5.6804,-5.6822,-5.6831,-5.6833,-5.683,-5.6577,-5.6798,-5.6796,-5.6794,-5.6793,-5.6793,-5.6553,-5.6603,-5.6623,-5.6672,-5.669,-5.6716,-5.6762,-5.6761,-5.6804,-5.6848,-5.683,-5.689,-5.6908,-5.6954,-5.6967,-5.7013,-5.698,-5.7007,-5.7014,-5.702,-5.7029,-5.6828,-5.702,-5.7019,-5.7018,-5.7018,-5.7018,0,-5.6752,-5.6761,-5.6808,-5.6847,-5.6885,-5.6847,-5.6875,-5.6909,-5.6962,-5.6983,-5.702,-5.7079,-5.7124,-5.7124,-5.7166,-5.7202,-5.7185,-5.7213,-5.7209,-5.7211,-5.7057,-5.7036,-5.7226,-5.7226,-5.7226,-5.7226,-5.7226,-5.7226,-5.686,-5.6942,-5.6935,-5.7024,-5.7032,-5.7091,-5.711,-5.7133,-5.7149,-5.7217,-5.7255,-5.7254,-5.7266,-5.7307,-5.7347,-5.7345,-5.7361,-5.7396,-5.7388,-5.7243,-5.7222,-5.7203,-5.7182,-5.74,-5.74,-5.7538,-5.7539,-5.754]}]]